Regional Weather Roundup
Issued by NWS Upton, NY

Current Version | Previous Version | Graphics & Text | Print | Product List | Glossary Off
Versions: 1 2 3 4 5 6 7 8 9 10 11 12 13 14 15 16 17 18 19 20 21 22 23 24 25 26 27 28 29 30 31 32 33 34 35 36 37 38 39 40 41 42 43 44 45 46 47 48 49 50

783
ASUS41 KOKX 100308
RWROKX

REGIONAL WEATHER ROUNDUP
NATIONAL WEATHER SERVICE NEW YORK NY
1000 PM EST FRI DEC 09 2016

NOTE: "FAIR" INDICATES FEW OR NO CLOUDS BELOW 12,000 FEET WITH NO
SIGNIFICANT WEATHER AND/OR OBSTRUCTIONS TO VISIBILITY.

NYZ071-072-176-178-NJZ106-104-100400-
NEW YORK CITY METRO AREA

CITY           SKY/WX    TMP DP  RH WIND       PRES   REMARKS
Central Park   CLEAR     31  11  43 NW8       30.30R WCI  23
Wall St Helipt CLEAR     34  16  47 VRB3      30.30R
Bronx Bot Gard NOT AVBL
LaGuardia APRT PTCLDY    33  14  45 NW21      30.29R WCI  21
Kennedy INTL   PTCLDY    32   9  38 NW20G29   30.30R WCI  20
Breezy Point     N/A    N/A N/A N/A NW12G20     N/A
Newark/Liberty PTCLDY    30  12  47 W12       30.30R WCI  20
Teterboro      CLEAR     31  10  41 NW7       30.28S WCI  24
$$

NYZ177-179-078>081-100400-
LONG ISLAND NEW YORK

CITY           SKY/WX    TMP DP  RH WIND       PRES   REMARKS
Jones Beach      N/A    N/A N/A N/A NW18G25     N/A
Matinecock PT  NOT AVBL
Farmingdale    CLEAR     30  11  45 NW12G21   30.27R WCI  20
MacArthur/ISP  PTCLDY    29  12  49 NW13G21   30.24R WCI  19
Shirley        CLEAR     29  13  51 NW12      30.25R WCI  19
Westhampton    NOT AVBL
Southampton    NOT AVBL
Bridgehampton  NOT AVBL
East Hampton     N/A     29  11  46 NW9G22    30.22R WCI  21
Montauk          N/A     30  13  49 NW16G28   30.22R WCI  19
$$

NYZ052-065-067-100400-
HUDSON VALLEY

CITY           SKY/WX    TMP DP  RH WIND       PRES   REMARKS
White Plains   CLEAR     28  12  51 NW14G23   30.23R WCI  17
Newburgh       PTCLDY    23  16  74 W9        30.26R WCI  13
Montgomery     CLEAR     25  13  60 W8        30.25R WCI  16
Poughkeepsie   MOCLDY    25  12  58 SW5       30.25R WCI  19
Albany         PTCLDY    22  13  68 W7        30.25R WCI  13
$$

NJZ001-105-106-008-010-013-015-019>022-104-100400-
NEW JERSEY

CITY           SKY/WX    TMP DP  RH WIND       PRES   REMARKS
Newark/Liberty PTCLDY    30  12  47 W12       30.30R WCI  20
Teterboro      CLEAR     31  10  41 NW7       30.28S WCI  24
Caldwell       CLEAR     30  11  45 VRB6      30.29S WCI  24
Somerville     CLEAR     30  14  51 W3        30.30R
Linden           N/A     31  12  46 NW8G17    30.32R WCI  23
Sussex         CLEAR     27  13  55 CALM      30.26R
Andover          N/A     25  13  60 VRB5      30.28R WCI  19
Trenton        MOCLDY    30  20  66 NW3       30.32R
Millville      CLEAR     31  19  61 W10       30.34F WCI  22
Atlantic City  CLEAR     31  17  56 W10       30.32F WCI  22
Wrightstown    CLEAR     30  20  65 NW8       30.29S WCI  23
Toms River     CLEAR     29  21  72 NW7       30.32S WCI  22
Belmar         CLEAR     28  19  69 NW9       30.32R WCI  19
$$

PAZ047>061-062-071-100400-
EASTERN PENNSYLVANIA

CITY           SKY/WX    TMP DP  RH WIND       PRES   REMARKS
Philadelphia   PTCLDY    32  18  56 W9        30.35S WCI  24
Allentown      CLEAR     27  19  72 W6        30.31R WCI  20
Scranton       PTCLDY    24  15  68 SW5       30.26R WCI  18
$$

CTZ002-004>006-009-010-012-RIZ004-006-007-MAZ004-011-015-100400-
SOUTHERN NEW ENGLAND
 IN CT

CITY           SKY/WX    TMP DP  RH WIND       PRES   REMARKS
Bradley INTL   PTCLDY    26  10  50 NW14      30.21R WCI  14
Hartford       PTCLDY    27  13  55 N8        30.23R WCI  19
Danbury        MOCLDY    27  10  49 W9        30.24R WCI  18
Wtrbury/Oxford PTCLDY    25   9  50 NW6       30.22R WCI  18
Bridgeport     NOT AVBL
Meriden        CLEAR     29  10  45 NW12G22   30.24R WCI  19
New Haven      PTCLDY    29  12  49 NW10      30.24R WCI  20
Chester          N/A     27  10  50 NW10G17   30.20R WCI  17
Groton         CLEAR     30  11  45 NW12      30.21R WCI  20
Wilimantic     CLEAR     28  10  46 NW6       30.20S WCI  22

 IN RI

CITY           SKY/WX    TMP DP  RH WIND       PRES   REMARKS
Providence     CLEAR     27   7  42 NW13      30.19R WCI  16
Block Island   PTCLDY    28  14  55 NW14G23   30.21R WCI  17
Westerly       CLEAR     28   9  44 NW6       30.21R WCI  22
 IN MA

CITY           SKY/WX    TMP DP  RH WIND       PRES   REMARKS
Boston         NOT AVBL
Worcester      PTCLDY    22   6  50 W12       30.12R WCI  10
Westfield      CLEAR     25   8  48 NW14      30.20R WCI  13
Provincetown   CLOUDY    30  15  53 NW15G26   30.14R WCI  19
Nantucket      PTCLDY    31  12  45 NW16G24   30.14R WCI  20
$$

ANZ330-335-338-340-345-350-353-355-100400-
COASTAL MARINE OBSERVATIONS


STATION/POSITION TIME  SKY/WX   TEMP    WIND        PRES    VSBY  WAVE
                                AIR SEA DIR/SP/G                  HT/PER
                 (UTC)          (F)     (DEG/KT/KT) (MB)    (MI)  (FT/S)
NY HARB ENTRANCE 0150            35 51  310/ 25/ 31 1024.5          4/ 5
20 S FIRE ISLAND 0150            36 52  320/ 27/ 33 1023.4          6/ 6
GREAT SOUTH BAY  0230            32 40                N/A
23 SSW MONTAUK P 0150            35 54  310/ 23/ 27 1022.6          5/ 6
15 E BARNEGAT LI 0230               51                N/A           5/ 5
HUDSON CANYON    0150            41 56              1022.9         10/ 7
KINGS POINT      0242            31 45              1025.2
EXECUTION ROCKS  0245            33     300/ 12/ 19   N/A
CENTRAL LI SOUND 0230            33 49  320/ 19/ 23   N/A           3/ 5
EASTERN LI SOUND NOT AVBL
ROBBINS REEF     0248            31     310/ 18/ 22 1025.9
$$


>>>>>>>>>>>>>>>>>>>>>>>>>>>> KEY <<<<<<<<<<<<<<<<<<<<<<<<<<<
>                                                          <
>     SKY/WX - Sky Condition/Present Weather               <
>     TMP    - Temperature in Fahrenheit                   <
>     DP     - Dew Point in Fahrenheit                     <
>     RH     - Relative Humidity in Percent                <
>     WIND   - Direction (from) and Speed in MPH           <
>     PRES   - Mean Sea Level Pressure (inches of Hg)      <
>     WCI    - Wind Chill Index                            <
>     VSB    - VISIBILITY IN MILES                         <
>     HX     - HEAT INDEX                                  <
>     TC     - TEMPERATURE IN CELSIUS                      <
>     VRB    - VARIABLE WIND DIRECTION                     <
>                                                          <
>>>>>>>>>>>>>>>>>>>>>>>>>>>> KEY <<<<<<<<<<<<<<<<<<<<<<<<<<<




USA.gov is the U.S. government's official web portal to all federal, state and local government web resources and services.